Temp
29 26 24 26 25 27 27 29 30 29 31 31 29 31 30 29 28 27 26 26 27 27 27 27 27 26 25 25 24 23 23 22 22 21 20 20 20 20 20 19 19 18 18 18
25 24 27 27 28 32 29 29 29 30 32 30 30 30 29 26 28 28 27 26 27 27 27 27 26 26 26 25 25 24 23 23 22 22 21 21 21 20 20 19 19 18 17 18
24 26 29 29 31 31 28 30 31 31 30 30 27 27 25 26 27 29 28 27 27 26 26 27 26 26 25 25 25 24 24 23 23 22 22 21 20 19 19 19 19 19 19 18
25 29 29 29 32 29 29 31 32 32 27 26 28 24 25 23 23 25 27 28 27 27 26 26 26 26 25 25 25 25 24 24 23 22 22 21 21 21 20 20 20 19 19 19
27 30 29 31 31 31 29 31 32 31 29 26 27 23 24 22 26 25 23 23 26 27 29 28 26 25 25 25 25 25 25 23 23 23 22 21 20 21 20 20 20 19 19 19
26 31 31 29 32 32 31 31 25 23 22 23 26 25 25 23 24 23 24 22 26 27 29 29 27 26 26 25 24 24 25 25 24 23 22 22 21 21 20 20 20 20 19 19
26 28 30 33 31 28 26 23 22 24 22 23 22 24 24 23 23 22 22 23 23 25 26 26 26 27 26 25 23 23 24 24 24 23 23 22 21 21 21 20 20 20 20 20
26 26 29 31 29 28 28 24 22 26 24 24 22 24 25 24 22 23 24 24 22 21 24 26 26 24 24 24 26 24 22 23 24 23 23 22 22 21 21 20 20 21 20 21
25 26 28 30 30 28 29 27 24 25 24 21 20 23 24 23 19 23 23 23 22 21 22 22 26 27 26 25 27 24 19 19 21 21 21 22 21 21 21 21 20 20 20 20
27 27 30 31 32 30 29 27 26 21 25 22 21 22 23 23 20 21 20 21 21 20 22 23 24 26 25 24 23 22 21 20 19 23 21 20 21 21 21 21 20 20 20 20
26 25 27 30 28 28 26 25 24 23 21 19 20 19 19 22 20 19 20 21 22 21 22 24 26 25 23 22 21 22 21 21 21 21 20 20 21 21 21 20 20 20 20 19
28 21 25 29 29 28 27 26 21 21 23 19 19 21 24 22 23 23 19 23 21 23 23 23 23 23 23 23 21 21 21 21 20 20 20 21 21 21 21 20 20 19 19 19
28 22 22 23 24 26 25 25 23 20 19 22 21 22 23 23 22 24 23 23 22 23 23 23 23 23 23 22 21 20 20 20 21 21 21 21 21 21 21 20 20 19 19 19
28 21 22 22 24 24 26 26 23 21 20 20 22 21 20 21 21 22 23 22 23 23 23 22 23 23 22 23 22 20 21 21 21 21 21 20 20 21 20 20 20 19 19 19
24 24 26 25 25 24 25 26 24 22 22 21 22 21 22 21 20 22 23 22 22 22 23 23 23 23 22 22 22 21 21 21 21 21 20 21 21 20 19 18 18 18 18 18
21 24 25 23 26 26 26 24 25 24 23 24 22 22 21 22 24 24 24 23 22 21 22 23 22 22 21 21 21 21 21 21 20 20 20 20 19 19 19 19 18 18 18 18
22 21 20 24 23 24 22 22 22 22 22 23 21 21 22 20 20 20 21 22 22 22 21 21 21 21 21 21 21 20 20 20 20 19 20 20 19 19 19 19 19 18 18 18
21 20 18 21 21 22 23 22 22 21 21 21 20 20 20 20 20 21 21 21 21 21 21 21 21 21 21 20 20 20 20 20 20 19 19 19 19 19 19 18 18 18 18 18
21 18 19 20 19 22 22 22 23 19 18 20 19 19 20 21 20 20 20 20 19 19 19 19 19 19 20 20 20 20 20 20 19 19 19 19 18 18 18 18 18 18 17 17
19 18 19 18 22 21 20 21 23 20 17 19 19 19 19 20 15 15 17 18 18 18 18 18 18 17 18 18 18 18 19 19 19 19 19 18 18 18 18 17 17 17 17 17
19 18 19 18 19 19 21 21 22 20 17 19 19 19 19 16 16 17 17 18 17 17 17 16 17 16 16 17 16 16 17 17 17 17 17 17 17 17 17 16 16 16 16 16
20 18 18 16 17 18 21 21 18 17 18 20 19 18 18 17 17 17 16 16 15 15 15 14 13 13 13 14 14 13 14 15 15 15 15 15 15 16 16 16 15 15 15 15
19 18 16 17 16 18 20 19 19 20 19 18 18 17 17 16 15 15 14 14 14 13 12 12 12 12 12 12 11 11 11 12 13 13 13 14 14 14 14 14 14 14 15 14
20 20 16 15 17 17 19 19 19 19 18 18 17 16 16 15 14 14 13 13 12 11 11 10 10 10 12 11 11 11 11 11 11 12 12 13 12 13 13 13 13 13 13 14
19 19 14 14 17 18 19 19 18 18 17 17 16 15 14 14 13 12 11 10 10 10 10 10 10 10 11 11 11 11 11 11 11 11 12 12 11 12 12 12 12 13 13 13
18 16 15 14 18 17 17 17 17 17 16 15 15 14 12 12 11 10 9 9 9 9 10 10 10 10 10 11 11 11 11 10 11 10 10 11 11 11 11 11 12 12 12 12
Height
1489 1498 1506 1492 1493 1491 1492 1492 1492 1484 1479 1484 1487 1484 1481 1487 1492 1495 1498 1501 1502 1503 1506 1509 1514 1518 1521 1522 1522 1523 1526 1526 1529 1533 1537 1538 1537 1538 1538 1539 1540 1540 1541 1541
1498 1505 1485 1485 1484 1478 1484 1491 1493 1484 1478 1483 1484 1488 1485 1482 1488 1488 1493 1497 1498 1500 1503 1508 1517 1520 1519 1519 1520 1523 1526 1528 1529 1531 1534 1537 1537 1537 1537 1536 1536 1536 1537 1539
1506 1489 1482 1486 1479 1484 1491 1492 1491 1492 1483 1480 1489 1500 1496 1489 1489 1486 1494 1494 1498 1505 1508 1512 1508 1508 1516 1520 1520 1521 1523 1526 1528 1529 1532 1534 1535 1536 1535 1535 1534 1532 1533 1534
1496 1479 1481 1482 1480 1484 1499 1481 1480 1484 1498 1516 1490 1534 1502 1497 1491 1494 1489 1495 1498 1500 1507 1508 1511 1512 1515 1519 1522 1521 1522 1523 1525 1527 1528 1529 1531 1533 1534 1534 1533 1532 1531 1532
1490 1479 1480 1483 1480 1476 1490 1478 1479 1482 1493 1502 1503 1522 1508 1498 1497 1501 1499 1493 1494 1494 1491 1495 1507 1514 1516 1519 1518 1521 1521 1522 1523 1524 1525 1526 1528 1531 1532 1532 1532 1532 1531 1530
1485 1476 1475 1474 1470 1471 1474 1479 1489 1495 1507 1531 1504 1513 1512 1513 1506 1505 1509 1506 1499 1495 1493 1498 1505 1514 1517 1515 1515 1515 1515 1515 1517 1519 1520 1521 1523 1527 1529 1528 1528 1528 1528 1527
1486 1479 1471 1468 1476 1474 1481 1505 1539 1536 1540 1540 1510 1513 1513 1506 1501 1501 1499 1502 1503 1500 1497 1500 1506 1512 1511 1509 1504 1502 1504 1504 1507 1512 1516 1518 1520 1520 1522 1525 1524 1523 1525 1523
1506 1510 1473 1467 1473 1485 1486 1500 1536 1539 1543 1534 1518 1528 1508 1502 1493 1499 1503 1507 1511 1512 1503 1509 1508 1506 1505 1500 1497 1512 1513 1509 1505 1506 1512 1514 1515 1516 1517 1519 1521 1523 1521 1521
1506 1500 1464 1463 1463 1472 1484 1500 1492 1512 1516 1538 1538 1519 1501 1495 1502 1498 1502 1507 1512 1516 1511 1507 1504 1502 1499 1495 1492 1505 1486 1464 1508 1513 1514 1516 1510 1511 1514 1514 1516 1518 1518 1519
1482 1499 1469 1463 1463 1468 1474 1476 1504 1516 1532 1551 1539 1529 1517 1502 1505 1496 1498 1507 1518 1522 1504 1504 1502 1500 1500 1497 1492 1499 1503 1513 1495 1512 1510 1511 1510 1508 1509 1511 1514 1513 1513 1517
1476 1488 1486 1470 1480 1483 1483 1493 1496 1504 1520 1548 1551 1536 1496 1497 1499 1497 1496 1501 1512 1517 1501 1502 1502 1503 1503 1501 1497 1495 1503 1506 1506 1506 1510 1508 1505 1505 1507 1508 1511 1511 1511 1512
1469 1492 1501 1487 1474 1468 1477 1489 1502 1528 1524 1530 1533 1524 1484 1485 1493 1492 1494 1494 1503 1505 1501 1505 1504 1506 1511 1508 1506 1500 1499 1500 1502 1503 1499 1497 1499 1502 1504 1505 1507 1508 1505 1508
1464 1496 1519 1510 1490 1478 1487 1490 1494 1501 1515 1521 1531 1521 1484 1495 1493 1493 1497 1501 1506 1503 1503 1503 1504 1506 1510 1509 1509 1508 1506 1502 1501 1500 1499 1498 1497 1500 1502 1503 1502 1502 1503 1503
1461 1492 1503 1525 1505 1495 1491 1488 1493 1500 1524 1526 1514 1512 1503 1500 1502 1503 1505 1505 1505 1505 1507 1508 1507 1506 1505 1504 1505 1506 1505 1504 1502 1500 1499 1498 1498 1501 1502 1502 1499 1497 1500 1498
1469 1494 1488 1490 1489 1490 1492 1489 1492 1503 1509 1518 1512 1512 1510 1506 1506 1507 1507 1506 1507 1506 1506 1507 1506 1504 1503 1503 1502 1502 1502 1502 1501 1501 1500 1500 1500 1499 1499 1499 1499 1497 1497 1494
1473 1494 1489 1502 1489 1488 1493 1492 1491 1495 1501 1501 1503 1510 1508 1506 1504 1502 1504 1507 1509 1508 1507 1505 1504 1504 1503 1502 1500 1499 1498 1497 1498 1499 1499 1499 1499 1499 1499 1498 1497 1497 1494 1493
1480 1491 1504 1509 1499 1495 1514 1506 1500 1501 1495 1496 1515 1513 1509 1511 1509 1511 1511 1511 1512 1512 1510 1509 1507 1506 1504 1501 1499 1498 1497 1496 1495 1495 1495 1496 1495 1495 1495 1494 1493 1492 1491 1490
1483 1492 1505 1515 1507 1532 1516 1507 1501 1506 1509 1509 1513 1515 1514 1515 1516 1515 1514 1514 1513 1512 1510 1509 1507 1505 1503 1501 1498 1495 1494 1493 1491 1490 1489 1489 1488 1487 1486 1486 1485 1485 1485 1485
1468 1490 1511 1520 1527 1515 1509 1509 1507 1516 1528 1520 1519 1517 1518 1517 1515 1516 1517 1515 1513 1510 1509 1507 1505 1503 1500 1498 1495 1492 1488 1487 1485 1483 1481 1480 1479 1478 1477 1477 1477 1477 1477 1477
1477 1481 1498 1518 1519 1529 1515 1505 1504 1504 1534 1521 1518 1518 1516 1514 1523 1520 1517 1514 1511 1509 1506 1503 1500 1498 1496 1492 1489 1486 1483 1480 1478 1476 1474 1472 1472 1470 1470 1469 1469 1469 1469 1468
1497 1497 1506 1514 1521 1517 1504 1502 1498 1521 1532 1517 1515 1515 1514 1515 1517 1516 1512 1509 1508 1506 1503 1499 1496 1493 1490 1487 1484 1481 1477 1475 1472 1469 1467 1465 1464 1462 1461 1460 1459 1459 1459 1458
1496 1507 1511 1516 1525 1528 1500 1502 1513 1515 1514 1513 1513 1513 1514 1514 1513 1511 1508 1505 1502 1499 1496 1493 1489 1486 1482 1479 1475 1471 1469 1466 1463 1459 1458 1455 1454 1453 1452 1451 1450 1449 1449 1448
1501 1496 1506 1509 1516 1506 1503 1505 1510 1511 1511 1512 1513 1514 1513 1512 1510 1509 1506 1503 1499 1495 1491 1487 1482 1477 1474 1471 1468 1463 1459 1456 1453 1450 1447 1445 1443 1441 1440 1439 1438 1437 1437 1436
1489 1488 1502 1507 1512 1508 1508 1509 1509 1510 1511 1513 1513 1512 1511 1510 1508 1506 1503 1499 1495 1491 1487 1482 1477 1471 1467 1463 1459 1455 1449 1446 1443 1439 1436 1434 1431 1429 1428 1427 1426 1425 1424 1425
1489 1488 1501 1510 1509 1508 1509 1509 1510 1511 1512 1510 1510 1509 1508 1507 1505 1502 1499 1496 1492 1488 1485 1480 1475 1470 1464 1459 1454 1449 1444 1439 1434 1430 1426 1422 1420 1417 1415 1414 1413 1413 1412 1413
1487 1492 1500 1509 1502 1505 1509 1510 1510 1509 1509 1509 1509 1508 1507 1505 1503 1500 1497 1494 1490 1486 1481 1477 1473 1468 1462 1456 1450 1445 1439 1433 1428 1422 1418 1414 1410 1407 1406 1404 1403 1403 1402 1403
Wind_Speed
19 2 8 12 6 12 9 2 4 6 7 4 7 3 2 23 25 26 28 31 35 35 34 31 29 24 28 28 20 29 29 25 22 22 20 18 15 14 15 15 11 14 17 11
5 7 13 7 14 1 7 5 5 4 5 4 3 5 4 7 4 27 31 32 36 34 36 33 29 23 26 28 25 24 31 25 22 23 23 18 14 14 12 13 14 14 16 15
5 13 8 9 2 3 5 2 1 1 4 3 6 5 5 2 5 13 24 33 28 15 21 30 34 30 28 28 28 22 26 26 23 22 20 20 17 17 15 18 17 13 15 16
7 17 11 10 3 5 2 3 2 1 4 3 3 4 4 5 7 11 14 26 21 21 21 21 27 28 28 30 31 25 23 25 21 19 22 22 22 17 16 13 11 13 13 15
9 3 6 4 6 5 7 4 0 1 1 3 4 5 7 3 4 9 13 28 32 33 32 29 27 24 26 24 31 27 22 23 19 17 19 19 24 21 16 14 13 13 14 13
11 19 3 8 3 3 2 3 8 5 4 3 4 5 5 5 6 10 11 18 30 34 31 18 33 24 14 16 26 33 29 23 21 18 18 19 21 22 19 17 16 13 13 13
6 6 4 3 3 7 9 7 4 5 5 4 6 5 6 8 7 5 13 19 22 26 24 24 26 22 23 18 23 33 36 32 25 20 18 16 19 20 20 18 18 16 14 14
2 8 6 3 7 8 4 8 5 3 2 3 7 6 6 3 19 17 13 10 2 14 20 16 19 25 25 19 30 22 32 39 26 20 14 14 17 18 21 19 20 17 16 13
3 6 6 7 5 10 4 2 8 4 2 5 3 5 6 8 11 18 13 11 6 18 20 11 11 5 11 24 28 28 42 28 10 12 15 16 18 20 20 20 21 22 20 18
4 2 3 5 5 2 6 4 2 3 3 2 4 4 5 3 5 9 17 15 10 16 21 15 13 9 11 18 22 27 24 15 19 21 16 19 18 16 18 18 21 22 21 21
5 3 7 4 4 3 5 4 5 4 4 5 4 6 7 10 10 11 17 32 33 20 26 14 8 6 6 12 12 22 18 9 11 8 12 17 18 17 19 17 17 21 20 20
5 5 1 2 3 6 5 5 6 5 6 1 3 4 5 10 13 16 29 25 22 16 16 18 14 9 6 6 9 5 5 2 2 9 13 13 13 17 21 21 19 17 17 15
3 2 3 9 8 4 8 4 4 5 3 0 4 5 1 10 10 10 10 14 13 12 13 10 12 7 3 12 5 5 2 3 7 10 10 11 15 16 18 21 22 18 17 17
7 4 7 6 7 3 4 4 5 6 4 4 1 3 8 8 9 12 13 21 16 17 16 12 8 5 1 4 7 2 7 8 11 13 10 10 11 12 10 13 16 16 14 13
5 4 3 1 4 4 2 2 7 5 3 4 4 9 2 5 8 16 22 19 19 14 9 4 2 3 1 1 5 4 6 7 9 10 10 10 12 14 12 11 11 12 11 10
4 1 3 5 3 3 3 7 3 4 4 5 8 6 2 7 15 17 13 15 11 10 7 4 4 7 7 6 9 9 11 10 10 10 7 8 11 13 15 12 11 11 11 8
4 4 3 2 2 5 6 9 13 9 9 7 7 2 2 10 18 23 24 21 17 16 15 12 8 6 7 7 7 11 13 16 15 15 16 18 20 21 19 18 18 17 15 15
4 4 3 3 4 4 1 11 20 20 14 14 10 7 12 15 23 24 21 18 17 16 16 15 15 16 16 15 15 12 10 11 15 17 17 17 18 21 24 25 25 24 23 21
6 5 3 4 3 3 4 4 2 6 6 5 7 8 13 5 1 14 17 15 15 17 17 17 18 19 19 20 20 22 24 25 22 22 22 21 22 24 24 25 26 25 26 25
7 7 5 2 4 3 4 5 1 9 3 3 12 7 9 14 3 3 15 15 15 14 15 17 17 16 15 15 16 18 21 22 23 24 25 25 23 23 26 27 28 27 27 27
3 4 5 2 3 1 3 10 3 4 5 7 16 14 14 5 3 11 17 18 19 22 25 28 31 32 31 30 29 28 25 22 22 21 21 21 23 25 27 28 30 31 31 31
4 4 1 3 5 3 4 5 6 7 8 11 12 12 10 8 12 15 17 20 23 27 30 31 30 31 32 31 31 32 32 30 29 25 26 29 31 31 31 31 32 33 34 35
3 4 5 3 4 1 20 21 16 12 11 12 9 8 8 7 8 12 18 23 26 26 27 29 28 28 27 27 27 30 31 31 29 29 33 35 35 35 36 34 33 34 33 35
4 3 5 5 3 10 17 14 12 8 12 8 7 6 6 7 11 16 21 23 23 25 27 29 29 29 29 27 28 28 27 28 27 29 32 32 32 34 33 33 33 34 35 33
4 4 5 4 4 14 11 9 12 11 9 7 6 6 8 11 16 20 21 21 22 23 24 26 31 31 30 29 30 30 26 24 26 28 31 32 32 31 31 28 28 30 31 29
3 6 4 4 8 13 13 14 9 9 8 7 5 7 12 16 18 18 18 19 21 23 23 25 27 29 29 31 30 29 30 27 29 33 31 31 31 28 28 29 29 28 29 28
Wind_Direction
299 35 253 254 215 246 221 205 294 194 213 126 222 271 342 186 192 178 186 190 197 199 202 197 199 210 212 213 221 219 218 214 219 223 218 237 253 243 251 250 257 242 228 244
355 271 256 256 273 275 21 18 8 23 165 151 192 281 352 32 118 185 183 189 199 199 201 199 190 210 213 213 220 222 219 220 222 228 234 247 252 247 258 260 259 254 250 247
177 259 290 256 324 17 356 122 0 213 353 10 96 350 355 355 73 110 188 192 198 191 192 197 189 204 212 219 221 226 223 222 228 233 237 240 239 247 242 240 239 246 248 246
240 260 239 259 189 111 24 279 132 86 66 228 65 258 319 311 342 83 139 176 159 158 165 195 207 203 212 222 222 226 228 226 232 238 237 244 242 248 250 252 251 242 245 245
246 296 309 236 205 146 218 238 137 277 359 35 341 81 265 69 14 89 100 138 159 166 185 211 202 217 210 220 220 223 232 232 238 240 246 245 241 254 253 252 246 238 236 246
265 276 254 209 193 174 345 10 24 42 94 40 234 118 285 26 319 61 85 136 168 186 209 221 201 210 209 226 223 221 225 233 237 238 243 239 242 245 236 232 236 238 236 236
307 289 276 217 45 355 68 56 352 347 10 230 299 76 224 35 70 70 39 8 183 199 221 213 208 249 239 253 212 222 223 225 230 229 229 233 236 229 235 240 245 241 243 242
216 315 191 205 169 190 200 148 149 253 217 226 11 346 301 100 64 54 54 10 189 224 191 189 229 255 260 227 213 241 249 228 220 218 225 241 240 237 241 243 248 250 254 251
164 274 301 166 169 132 271 207 188 148 72 86 270 278 310 19 38 29 71 82 203 210 150 135 104 95 217 215 242 224 232 233 196 254 252 257 252 247 250 244 251 252 257 252
236 315 310 282 118 185 159 186 29 18 179 100 280 285 231 112 133 61 8 18 288 224 129 119 118 111 176 228 246 236 247 246 206 256 241 255 259 256 263 257 253 253 254 250
154 119 298 21 18 226 349 20 24 108 109 154 179 254 214 186 166 133 140 209 234 210 131 132 115 93 104 119 209 231 242 230 260 290 261 253 266 268 266 267 269 260 260 261
193 134 127 218 267 127 145 108 112 107 301 177 161 279 254 213 176 182 198 211 218 158 142 135 129 131 163 151 127 136 241 138 123 256 276 287 277 277 266 272 273 272 263 261
175 23 40 351 350 13 75 65 143 126 90 111 131 265 29 45 31 125 134 171 162 144 147 157 163 169 83 181 149 122 120 302 296 300 303 294 289 276 270 271 275 270 274 285
87 86 140 172 217 216 2 61 66 97 75 289 298 52 26 88 71 81 137 150 142 142 149 153 168 179 342 174 209 281 322 327 335 320 305 288 298 298 298 282 277 288 292 296
95 96 87 233 83 84 222 353 61 86 190 113 302 102 116 133 131 107 110 129 133 135 137 131 35 353 17 290 308 301 329 321 327 326 301 304 317 320 316 320 306 307 307 310
3 135 112 53 77 144 35 345 13 66 149 81 114 74 295 110 83 59 52 83 135 169 179 212 233 215 220 245 267 257 280 273 266 278 277 286 295 301 302 297 294 302 315 324
78 104 68 337 335 67 28 343 78 63 34 118 101 129 65 63 69 62 66 50 41 36 40 39 34 0 331 309 283 271 279 258 268 275 286 294 299 301 300 297 295 298 295 299
121 91 89 184 25 62 214 89 79 75 52 60 69 54 63 110 86 56 42 37 29 18 8 359 350 341 333 326 323 323 315 284 272 275 275 279 282 292 298 299 300 302 298 290
119 108 66 111 137 129 12 20 352 115 46 38 78 46 58 83 65 49 27 20 11 357 348 342 334 327 321 315 313 308 304 299 289 287 285 284 287 287 290 289 293 298 297 295
62 88 111 116 140 187 240 290 45 120 67 2 85 73 50 41 52 285 30 22 11 2 352 341 338 339 333 324 318 309 296 289 287 288 285 281 277 281 282 279 279 285 284 285
36 22 129 125 115 321 269 342 55 112 204 66 63 49 41 59 73 355 349 342 337 334 331 328 323 319 315 311 311 308 301 293 293 291 288 283 277 272 273 273 271 271 276 279
141 124 147 84 93 211 304 22 110 159 112 60 49 60 55 25 359 346 340 339 337 335 331 328 323 318 313 311 310 309 306 306 298 291 286 287 284 282 282 280 277 272 272 274
34 179 154 135 174 101 92 106 105 94 76 88 82 43 15 9 1 343 343 340 338 339 339 336 332 331 329 328 319 306 302 302 300 292 287 287 287 286 285 281 277 274 268 265
339 132 109 84 318 99 97 92 86 85 101 72 48 51 25 26 353 342 339 337 338 340 344 344 343 338 341 340 333 330 318 311 310 306 301 296 291 287 281 275 278 272 270 263
208 75 111 62 148 99 91 93 117 105 75 61 50 33 24 356 348 344 340 342 345 347 351 349 350 339 339 340 337 335 333 326 317 311 309 307 302 295 289 285 280 275 273 269
348 157 141 193 163 124 121 114 96 80 74 89 62 22 3 352 352 351 355 351 347 346 347 342 337 334 337 336 329 324 320 318 313 308 308 308 308 303 297 296 289 277 273 271